Weather History for Las Vegas, NV

Change the Weather History Date:

Wednesday, August 28, 2013

  Actual Average Record
Temperature  
Mean Temperature 90 °F 89 °F  
Max Temperature 100 °F 100 °F 110 °F (1944)
Min Temperature 80 °F 77 °F 58 °F (1945)
Degree Days  
Heating Degree Days 0 0  
Month to date heating degree days 0 0  
Since 1 June heating degree days 0 1  
Since 1 July heating degree days 0 0  
Cooling Degree Days 25 24  
Month to date cooling degree days 699 725  
Year to date cooling degree days 3108 2779  
Since 1 June cooling degree days 2418 2229  
Growing Degree Days 40 (Base 50)    
Moisture  
Dew Point 58 °F    
Average Humidity 35    
Maximum Humidity 43    
Minimum Humidity 26    
Precipitation  
Precipitation T in 0.01 in 0.00 in (2014)
Month to date precipitation 0.23 0.30  
Year to date precipitation 1.14 2.78  
Snow  
Snow 0.00 in 0.00 in 0.00 in ()
Month to date snowfall 0.0 0.0  
Since 1 June snowfall 0.0 0.0  
Since 1 July snowfall 0.0 0.0  
Snow Depth 0.00 in    
Sea Level Pressure  
Sea Level Pressure 29.79 in    
Wind  
Wind Speed 5 mph (SW)    
Max Wind Speed 24 mph    
Max Gust Speed 32 mph    
Visibility 10 miles    
Events      
T = Trace of Precipitation, MM = Missing Value Source: NWS Daily Summary

Daily Weather History Graph

Daily Weather History Graph

Search for Another Location

Airport:

Trip Planner

Search our weather history database for the weather conditions in past years. The results will help you decide how hot, cold, wet, or windy it might be!

Date:

Astronomy

Aug. 28, 2013 Rise Set
Actual Time 6:09 AM PDT 7:13 PM PDT
Civil Twilight 5:43 AM PDT 7:39 PM PDT
Nautical Twilight 5:11 AM PDT 8:11 PM PDT
Astronomical Twilight 4:39 AM PDT 8:43 PM PDT
Moon No Moon Rise 1:49 PM PDT (8/28)
Length of Visible Light 13h 56m
Length of Day
13h 03m
Last Quarter, 46% of the Moon is Illuminated
Aug 28
Last Quarter
Sep 5
New
Sep 12
First Quarter
Sep 19
Full
Sep 26
Last Quarter

Hourly Weather History & Observations

Time (PDT) Temp. Heat Index Dew Point Humidity Pressure Visibility Wind Dir Wind Speed Gust Speed Precip Events Conditions
12:56 AM 84.0 °F 83.5 °F 57.9 °F 41% 29.77 in 10.0 mi Calm Calm - N/A   Partly Cloudy
1:56 AM 82.9 °F 82.4 °F 57.0 °F 41% 29.77 in 10.0 mi Calm Calm - N/A   Partly Cloudy
2:56 AM 82.0 °F 81.7 °F 57.0 °F 42% 29.77 in 10.0 mi Calm Calm - N/A   Partly Cloudy
3:56 AM 82.0 °F 81.6 °F 55.9 °F 41% 29.77 in 10.0 mi Calm Calm - N/A   Partly Cloudy
4:56 AM 81.0 °F 80.8 °F 55.9 °F 42% 29.77 in 10.0 mi Calm Calm - N/A   Partly Cloudy
5:56 AM 80.1 °F 80.2 °F 55.9 °F 43% 29.80 in 10.0 mi Calm Calm - N/A   Partly Cloudy
6:56 AM 81.0 °F 80.8 °F 55.9 °F 42% 29.81 in 10.0 mi Calm Calm - N/A   Partly Cloudy
7:56 AM 82.9 °F 82.1 °F 55.9 °F 39% 29.83 in 10.0 mi South 3.5 mph - N/A   Partly Cloudy
8:56 AM 86.0 °F 84.7 °F 55.9 °F 36% 29.84 in 10.0 mi ENE 4.6 mph - N/A   Scattered Clouds
9:56 AM 88.0 °F 86.5 °F 55.9 °F 34% 29.85 in 10.0 mi Calm Calm - N/A   Scattered Clouds
10:56 AM 91.0 °F 89.2 °F 55.9 °F 30% 29.82 in 10.0 mi Variable 3.5 mph - N/A   Scattered Clouds
11:56 AM 93.9 °F 92.2 °F 55.9 °F 28% 29.83 in 10.0 mi Calm Calm - N/A   Scattered Clouds
12:56 PM 96.1 °F 94.8 °F 57.0 °F 27% 29.81 in 10.0 mi Variable 4.6 mph - N/A   Scattered Clouds
1:56 PM 98.1 °F 96.8 °F 57.0 °F 25% 29.78 in 10.0 mi Calm Calm - N/A   Scattered Clouds
2:56 PM 97.0 °F 96.9 °F 60.1 °F 29% 29.77 in 10.0 mi West 19.6 mph 28.8 mph N/A   Mostly Cloudy
3:03 PM 96.8 °F 96.2 °F 59.0 °F 28% 29.86 in 10.0 mi West 17.3 mph 26.5 mph N/A   Mostly Cloudy
3:56 PM 95.0 °F 93.7 °F 57.0 °F 28% 29.74 in 10.0 mi WSW 13.8 mph - N/A   Mostly Cloudy
4:56 PM 91.9 °F 91.8 °F 61.0 °F 35% 29.76 in 10.0 mi West 8.1 mph - 0.00 in   Mostly Cloudy
5:56 PM 95.0 °F 93.7 °F 57.0 °F 28% 29.75 in 10.0 mi SSW 6.9 mph - N/A   Scattered Clouds
6:56 PM 95.0 °F 93.7 °F 57.0 °F 28% 29.75 in 10.0 mi WSW 8.1 mph - N/A   Scattered Clouds
7:56 PM 93.0 °F 91.4 °F 55.9 °F 29% 29.76 in 10.0 mi SW 5.8 mph - N/A   Scattered Clouds
8:56 PM 91.0 °F 90.9 °F 61.0 °F 36% 29.77 in 10.0 mi SW 8.1 mph - N/A   Mostly Cloudy
9:56 PM 89.1 °F 89.0 °F 61.0 °F 39% 29.78 in 10.0 mi SSW 9.2 mph - N/A   Mostly Cloudy
10:56 PM 87.1 °F 86.7 °F 60.1 °F 40% 29.79 in 10.0 mi SSW 6.9 mph - N/A   Partly Cloudy
11:56 PM 87.1 °F 86.7 °F 60.1 °F 40% 29.82 in 10.0 mi South 8.1 mph - N/A   Partly Cloudy